SL-14 DEB, 45290

Orbit data source: Space-Track

SL-14 DEB, 45290 is space debris in LEO originally from a launch on Thu, 15 Aug 1991 UTC launched from the Plesetsk Missile And Space Complex (PKMTR). Debris objects in space refer to the collection of defunct objects orbiting the Earth. Examples of debris include non-operational satellites, rocket bodies, and fragments generated from explosions, collisions, or faulty payload assembly.

Loading next visibility...
Identifier
45290, 1991-056AC
Orbit
LEO
Country
Flag of CISCIS
Related business
Manufacturer
Unknown
Mission
Spacecraft
Bus & Motor
Unknown
Mass
Unknown
Launch date (UTC)
1991-08-15 (34 years ago)
Launch vehicle
Unknown
Launch site
Plesetsk Missile And Space Complex (PKMTR)
Object type
Payload
Rocket body
Debris
Shape & HBR
Unknown shape, 0.2 m
Radar Cross Section
Small (<0.1 m²)

Expand to show TLE details & history
Last TLE update: 6 hours ago

TLE from 6 hours ago
0 SL-14 DEB
1 45290U 91056AC  25355.10826950  .00001941  00000-0  33152-2 0  9993
2 45290  82.6267 231.7989 0120206   5.3335 354.9050 13.41564623284535
Epoch: 2025-12-21T02:35Z
TLE epoch observation values (Epoch: 2025-12-21T02:35:54.484Z)
Latitude
0.00001°
Longitude
102.89643°
Altitude
1,016.715 km
Speed
7.387 km/s
True Right ascension
15h 27m 11s
True Declination
0° 00' 00"
Sunlit
Object was in daylight at epoch
Visualization orbit readout
Latitude
Unknown
Longitude
Unknown
Altitude
Unknown
Speed
Unknown
Apparent Right ascension
Unknown
Apparent Declination
Unknown
Sunlit
N/A
Visualization observer readout
Local Sidereal Time
07:16:25
Azimuth
Unknown
Elevation
Unknown
Doppler factor
Unknown
Orbital elements
Apogee altitude
1,190.563 km
Perigee altitude
1,010.764 km
Semi-major axis
7,478.8 km
Eccentricity
0.01202
Inclination
82.6267°
RAAN
231.7989°
Arg. of periapsis
5.3335°
True anomaly
354.78081°
Mean anomaly
354.905°
Eccentric anomaly
354.84309°
Mean motion
3.35579 °/min
Orbital period
107.28 mins
BSTAR
0.0033152
Loading maneuver chart data...
Computing Atmospheric mass density...
Loading historical data...
Loading historical data...
Loading historical data...
Loading historical data...
Loading historical data...
Loading historical data...
Loading historical data...

Documentation

Showing up to 5 results
|